Wind_Speed
3 3 3 3 3 4 4 5 6 7 8 8 9 10 11 12 13 14 15 16 16 17 18 19 20 21 22 23 23 24 25 25 26 26 27 27 28 29 30 30 31 31 31 31 32 32 33 33 34 35 37 38 39 40 41 42 42 43 44 45 47 47 47 47 46 45 45 45 45 45 44 44 42 43 42 41 40 40 39 38 37 37 37 37 36
2 3 3 4 4 5 6 7 8 9 10 11 11 12 13 14 14 15 16 17 18 18 19 19 20 21 22 23 24 24 25 26 27 27 28 28 29 30 31 31 32 33 33 33 34 34 34 35 36 37 38 39 41 41 42 43 44 44 45 46 48 49 49 49 48 47 46 46 46 45 44 43 42 42 42 42 42 41 39 37 36 37 37 37 37
4 4 5 6 6 7 8 9 10 10 11 12 13 13 14 15 16 17 18 19 19 20 21 21 22 22 23 24 25 26 26 27 28 28 29 29 30 31 32 33 33 34 34 35 35 36 37 37 38 39 40 41 42 43 43 44 44 45 46 47 47 48 49 50 49 48 47 47 47 45 43 42 42 42 42 43 42 41 40 39 39 38 37 37 38
5 6 7 8 8 9 10 11 11 12 13 13 14 15 16 17 17 18 20 21 21 22 23 24 24 24 25 26 27 28 28 28 29 29 30 30 32 33 34 34 34 35 35 36 37 37 38 39 40 41 42 43 45 45 46 46 46 47 48 48 49 48 48 49 49 48 48 47 46 44 43 42 42 43 43 42 42 41 40 41 41 39 37 37 37
7 7 8 8 9 10 12 12 13 14 14 15 16 17 18 19 19 20 21 22 23 23 24 26 26 27 27 27 28 29 30 31 31 31 32 32 33 34 34 35 35 36 37 38 38 39 40 41 42 43 45 46 47 48 48 48 48 49 50 50 51 51 50 49 49 48 48 47 45 44 43 42 42 42 42 41 41 40 40 41 41 39 39 38 36
8 9 10 10 11 11 12 14 15 15 16 17 17 18 19 20 21 22 23 24 25 25 26 27 28 29 29 29 29 30 31 32 33 34 34 35 35 36 35 36 37 38 39 39 40 41 42 43 45 46 47 48 49 50 49 50 49 50 51 51 52 52 52 52 50 49 47 45 44 43 42 42 42 41 41 40 40 39 39 40 41 41 40 40 39
10 11 12 13 13 14 14 15 16 17 18 18 19 20 21 22 22 23 24 25 26 27 27 27 28 30 30 30 31 32 32 33 33 35 36 37 37 37 37 38 39 39 40 40 42 43 45 46 47 49 50 51 52 52 51 51 50 51 51 51 51 51 51 51 51 50 47 45 44 43 44 45 45 44 42 42 41 39 38 39 41 42 41 41 41
11 12 13 14 15 16 16 17 18 19 20 21 22 22 23 24 24 25 26 27 28 28 29 29 29 30 31 32 32 33 34 34 34 36 37 38 38 38 39 40 40 40 41 42 44 46 47 48 50 51 53 54 54 54 53 51 51 51 51 51 51 51 50 50 50 49 48 47 46 45 45 46 47 47 45 44 43 41 38 37 37 39 41 42 41
12 13 14 15 16 17 18 19 20 21 22 23 24 25 25 26 27 28 28 29 30 31 31 31 31 32 32 33 34 35 36 36 37 38 39 39 40 40 41 42 42 42 43 44 45 48 49 51 52 54 55 56 56 55 54 52 51 51 51 50 50 50 50 49 48 47 47 46 46 47 46 45 47 47 46 46 45 42 40 38 36 36 38 40 40
14 15 16 17 17 18 19 20 21 22 23 24 25 27 28 29 30 31 31 32 33 33 34 33 33 33 34 35 36 37 37 38 39 40 40 41 41 42 43 43 44 44 45 46 48 49 51 53 54 55 57 57 57 56 55 52 51 50 50 50 50 49 49 48 47 46 46 45 45 46 45 45 45 45 46 45 44 43 43 44 42 38 35 36 36
16 17 18 19 20 20 21 22 23 24 25 26 27 28 30 31 32 34 34 35 35 36 36 36 35 36 36 37 38 38 39 39 40 41 41 42 42 43 44 44 45 47 48 49 50 52 53 54 55 57 58 58 58 57 55 53 51 50 50 49 49 49 48 47 46 45 45 45 45 44 43 44 44 44 44 44 44 44 44 45 45 42 38 36 34
18 19 20 20 21 22 23 24 25 26 27 29 30 31 32 33 34 35 36 37 38 38 38 38 37 38 38 39 40 40 40 41 41 41 42 43 44 44 45 46 47 48 50 51 52 54 55 55 57 58 58 58 58 57 55 53 51 50 49 49 49 48 48 47 46 45 45 45 45 44 43 43 43 42 42 43 44 44 44 44 44 43 43 41 40
20 21 21 22 23 24 25 26 27 28 29 31 32 33 34 35 36 37 38 39 40 40 40 39 39 40 40 40 41 42 42 42 42 42 43 45 45 45 46 47 48 50 51 53 54 55 56 57 58 58 58 58 58 57 55 54 52 51 49 49 49 49 48 48 46 46 45 45 45 45 45 43 42 41 40 41 43 44 45 45 45 45 45 46 46
22 22 23 24 25 26 27 28 29 30 31 33 34 35 36 37 38 39 40 41 42 42 42 42 42 42 41 41 41 42 43 44 44 43 44 45 46 46 47 48 50 51 52 54 55 57 58 58 59 59 59 59 59 57 56 55 53 52 51 50 49 49 49 49 48 47 46 46 45 45 45 44 42 40 37 38 41 43 45 45 45 47 47 46 47
24 25 26 27 27 28 29 30 31 32 34 35 36 38 39 40 41 41 42 43 43 44 45 45 44 44 44 43 42 42 43 44 44 44 45 46 47 48 49 50 52 53 54 56 57 58 59 60 60 59 60 60 59 58 56 55 53 52 52 51 50 50 50 50 50 49 47 46 45 45 44 44 43 41 38 37 38 39 43 44 45 47 47 47 48
26 27 28 29 30 31 32 33 34 35 36 37 39 40 41 42 43 44 44 45 45 46 46 47 47 46 46 46 45 45 44 44 44 44 45 47 48 50 52 53 54 55 56 57 59 59 60 60 60 60 60 60 59 57 56 54 53 53 52 52 52 52 51 51 51 50 49 47 46 45 44 44 43 42 40 39 38 38 40 43 44 47 48 48 50
29 30 31 31 33 34 35 36 37 38 39 40 41 42 44 44 45 46 46 46 46 47 47 48 48 48 49 48 49 48 47 47 46 45 45 47 49 52 54 55 56 57 58 59 60 61 61 61 61 61 61 60 59 57 56 54 53 53 53 53 53 53 52 52 51 50 50 49 48 46 45 44 43 42 42 41 41 41 41 42 44 47 49 49 50
31 32 33 34 35 36 37 38 39 40 41 42 43 44 45 46 47 47 48 48 48 48 48 49 49 50 51 51 51 51 50 50 50 49 48 48 50 52 55 58 58 58 59 61 62 62 62 63 62 62 61 60 58 57 56 55 54 54 54 54 54 54 53 52 52 51 51 50 50 48 46 45 44 43 43 43 44 44 44 45 45 48 49 50 50
34 35 36 37 38 38 39 40 41 42 43 44 45 46 47 48 48 49 49 49 49 49 49 50 50 51 52 52 52 53 53 52 53 53 51 50 50 52 55 58 59 59 60 62 63 63 63 63 63 62 61 60 58 57 56 55 55 55 55 55 55 55 53 53 53 52 52 52 52 51 49 48 47 46 46 46 46 47 47 48 49 50 51 51 52
36 37 38 39 40 41 42 43 43 44 45 46 47 47 48 49 49 50 50 50 50 50 50 51 52 52 53 53 53 54 55 55 56 56 56 53 52 53 55 58 59 60 61 63 65 65 64 64 63 62 60 59 58 58 57 57 56 56 56 56 56 55 54 54 53 53 53 53 53 53 52 51 50 50 50 49 49 50 50 51 52 53 54 54 55
38 39 40 41 42 43 44 44 45 46 47 47 48 49 49 50 50 50 50 50 51 51 51 52 53 53 53 54 54 55 57 58 59 59 60 58 56 55 56 58 59 60 62 64 65 66 66 64 62 61 60 59 58 58 58 57 57 56 56 56 56 55 55 55 55 54 55 54 54 54 53 54 54 53 54 53 54 54 55 56 56 57 57 58 59
40 41 42 43 43 44 45 46 47 47 48 49 49 50 50 50 50 51 51 51 52 52 52 53 53 54 55 56 57 58 59 60 61 62 62 62 61 59 60 61 61 61 62 64 65 65 65 63 61 60 60 58 58 57 57 57 57 56 56 56 56 56 56 57 57 57 56 56 56 56 55 56 56 56 57 57 58 58 59 59 60 60 61 61 63
41 42 43 44 45 46 46 47 48 49 50 50 50 51 51 51 51 51 52 52 52 53 53 53 54 55 57 58 59 60 61 62 63 64 65 65 65 64 64 65 64 64 64 65 65 64 63 61 60 59 58 57 57 56 56 56 57 57 57 58 58 58 59 59 59 59 59 59 59 59 59 60 60 60 61 61 61 62 62 62 62 63 64 64 65
42 43 44 45 46 47 48 49 49 50 51 51 51 51 51 51 52 52 53 53 53 53 54 54 56 57 58 60 61 62 64 64 65 66 67 68 69 68 68 68 67 65 65 65 64 63 61 59 59 58 57 56 56 56 57 57 57 58 58 59 60 60 60 61 61 62 63 63 64 64 64 65 65 65 66 66 65 65 65 65 65 65 66 67 68
44 45 45 46 47 48 49 50 50 51 51 52 52 52 52 53 53 53 53 54 54 54 55 56 58 59 60 61 63 64 65 67 68 69 70 71 72 72 70 70 69 67 65 65 64 63 61 59 58 57 56 56 56 57 57 58 58 59 59 60 61 62 62 64 65 66 67 67 68 69 70 70 70 70 71 71 70 70 69 69 69 69 70 70 71
45 46 47 48 49 49 50 51 51 52 53 53 54 54 54 54 54 54 54 55 56 56 57 58 60 61 62 63 65 66 67 69 70 71 72 73 73 74 73 71 70 69 67 66 65 63 61 59 58 58 58 58 58 58 59 59 60 60 61 62 63 65 66 67 69 70 71 71 72 73 74 75 75 75 75 75 75 74 74 74 73 74 75 75 75
47 48 49 49 50 51 51 52 53 54 54 55 55 55 55 55 55 55 56 56 57 58 59 60 62 63 64 65 67 68 69 71 72 73 74 74 74 75 75 74 72 70 67 65 63 61 60 59 59 59 59 60 59 60 60 60 61 62 63 65 66 68 70 71 72 74 75 75 76 77 78 78 78 79 79 79 79 79 79 79 78 79 79 79 79
49 49 50 51 51 52 53 54 54 55 56 56 56 56 56 56 56 56 57 58 58 60 61 62 63 65 66 67 69 70 71 72 73 73 74 75 75 75 76 76 74 72 69 65 62 59 57 58 59 58 59 60 60 61 62 63 64 66 67 69 70 71 73 75 76 77 78 79 80 80 81 81 81 82 82 83 83 83 83 83 83 83 83 82 82
50 51 51 52 53 53 54 55 55 56 56 56 55 55 55 56 57 57 58 59 60 61 62 64 65 67 68 69 70 72 73 73 74 74 75 75 75 75 75 74 74 73 71 67 61 57 55 57 59 59 58 61 63 63 65 67 68 70 72 73 75 76 77 78 79 80 81 82 82 83 84 84 84 85 85 86 86 87 87 87 87 86 86 85 84
51 52 53 53 54 54 54 55 55 55 55 55 55 55 56 57 57 58 59 60 61 62 64 66 67 69 70 71 72 73 74 74 74 75 75 74 74 73 72 72 72 71 71 69 62 56 56 57 59 61 62 63 66 67 69 72 73 75 77 78 79 80 81 82 82 83 84 85 85 86 87 87 88 88 88 88 89 89 89 89 88 88 87 86 85
52 52 53 53 53 53 54 54 54 55 54 55 55 56 56 57 58 60 61 62 63 65 66 67 69 70 71 72 73 73 74 74 74 74 73 73 71 71 70 69 70 70 70 70 66 59 58 61 62 64 67 67 69 71 73 75 77 79 81 82 83 84 85 86 86 87 88 89 90 90 91 91 91 91 90 90 90 90 90 89 89 88 88 87 85
52 52 52 52 52 52 53 54 54 54 54 55 55 56 58 59 60 61 63 64 65 66 68 69 70 71 72 73 73 74 74 74 74 73 72 71 70 69 69 69 69 71 71 72 71 65 63 66 68 68 71 72 72 75 78 79 81 83 84 86 88 89 90 90 91 91 92 93 93 93 93 93 93 92 91 91 91 90 90 90 89 88 88 87 85
51 51 51 52 52 53 53 54 54 55 55 56 57 58 59 60 62 63 64 66 67 68 70 71 72 73 73 74 74 74 74 73 72 71 70 69 68 67 68 69 69 72 74 75 76 74 69 69 72 73 75 78 77 78 82 84 85 87 88 89 91 92 93 93 94 94 94 94 95 95 95 94 93 93 92 92 91 91 90 90 89 88 87 86 85
51 52 52 52 53 53 54 55 55 56 57 58 59 60 61 62 63 65 66 67 69 70 72 72 73 74 74 74 74 74 72 71 69 68 67 67 67 67 69 71 72 74 77 79 80 80 77 73 75 77 79 82 83 82 85 88 89 90 91 92 93 94 94 95 96 95 95 95 96 96 95 95 94 94 93 92 92 91 90 90 89 88 87 86 85
52 52 53 53 54 54 55 56 57 58 58 59 60 61 62 64 65 67 68 69 71 72 73 73 73 74 74 73 72 71 69 67 66 66 67 67 68 70 71 74 76 77 80 82 84 85 85 81 79 80 82 85 86 86 89 92 93 94 94 95 96 96 96 97 98 97 96 97 97 97 96 96 95 94 94 93 92 91 91 90 89 88 87 86 85
53 53 54 54 55 56 57 58 59 59 60 60 62 63 64 66 68 69 70 71 72 73 73 73 73 73 72 70 69 68 66 66 66 67 68 70 71 74 75 77 79 81 83 86 89 90 91 89 86 85 87 89 91 92 94 96 98 98 99 99 98 98 98 98 98 97 96 97 97 97 96 95 95 94 93 92 91 91 90 89 88 87 86 85 84
54 54 55 55 56 57 58 59 60 61 62 63 64 66 67 69 70 71 72 72 73 73 73 73 73 71 69 68 67 66 66 66 68 69 71 73 75 77 79 81 83 86 87 90 92 94 95 95 94 92 93 95 96 97 99 100 102 102 101 100 100 99 99 98 98 96 96 96 96 96 95 95 94 93 93 92 91 90 90 89 87 86 85 83 82
55 55 56 57 57 59 60 61 62 63 64 65 67 69 70 71 72 72 73 73 73 74 73 72 70 69 67 67 66 67 68 70 71 73 75 77 79 81 83 86 87 89 91 92 95 97 98 100 100 99 99 100 101 101 102 103 104 104 103 101 100 99 99 99 98 97 95 95 96 96 96 96 96 95 94 93 92 92 92 90 89 88 86 85 83
56 57 58 59 60 61 62 63 64 66 67 69 70 71 72 72 73 73 74 74 74 73 71 69 68 67 67 67 68 70 72 74 76 78 80 81 83 85 87 90 91 92 94 96 98 100 102 103 104 105 105 104 105 105 104 103 104 104 104 104 103 101 100 100 99 97 96 96 96 96 96 97 97 97 96 95 95 95 94 93 92 91 89 88 86
58 59 61 61 63 64 64 66 67 68 70 71 72 72 73 73 74 74 74 74 72 70 68 67 67 67 68 69 72 74 76 79 80 82 84 86 87 88 90 93 94 96 97 99 101 103 105 107 107 107 108 108 107 106 105 105 105 105 106 106 107 106 104 102 100 98 98 98 98 97 97 97 97 97 96 96 95 95 95 94 92 91 90 89 88
61 62 63 64 65 66 67 68 69 71 72 73 73 73 74 74 74 74 73 71 69 68 67 67 67 68 71 73 76 78 80 82 84 86 88 90 92 92 93 95 97 99 101 102 104 106 108 109 109 109 109 109 108 108 107 107 107 107 108 108 109 110 109 107 104 100 99 100 101 100 98 97 96 96 94 94 93 92 92 91 89 87 86 85 84
63 64 65 65 66 67 69 70 71 73 74 74 74 75 75 74 73 72 70 69 68 68 67 68 69 71 74 77 79 82 84 85 87 89 91 92 94 95 96 98 100 102 104 105 107 108 109 109 110 110 111 111 110 110 110 110 110 110 111 111 112 112 112 111 108 104 101 101 102 101 98 95 93 92 90 89 88 87 86 85 83 81 80 79 78
65 66 67 67 68 69 71 72 73 74 75 75 75 75 74 72 70 69 68 68 68 68 69 70 72 75 77 80 83 85 87 88 90 92 93 94 95 97 99 100 102 104 107 108 109 109 110 111 111 112 113 113 113 112 112 112 113 113 113 113 114 114 114 114 111 107 103 100 100 98 95 91 88 87 85 83 82 81 79 78 76 74 73 73 72
68 68 69 70 71 72 72 73 74 75 75 75 74 73 71 69 68 68 68 68 69 70 72 74 77 79 81 83 85 87 90 91 92 94 95 96 98 99 101 102 104 105 107 108 109 110 111 112 113 114 114 115 115 115 115 115 116 116 116 115 115 115 114 113 111 107 102 98 96 94 91 87 84 83 81 79 78 76 74 73 71 69 68 68 68
70 71 72 72 73 73 73 74 74 74 74 73 72 70 69 68 68 68 69 70 72 74 76 78 80 83 84 86 87 89 92 94 95 96 98 99 100 101 102 104 105 106 107 108 109 111 112 114 115 116 115 116 117 117 116 117 118 118 117 116 114 113 111 110 107 104 100 97 96 94 90 85 83 81 79 76 75 73 71 69 67 65 65 65 64
73 73 73 73 73 73 74 74 74 73 73 71 70 69 68 68 69 70 71 73 75 77 79 82 84 86 87 89 90 91 93 96 98 99 100 101 102 103 104 105 106 107 108 109 110 111 113 115 116 117 117 117 118 118 118 118 118 117 116 115 113 111 109 108 106 104 101 98 96 94 91 86 82 80 77 74 72 69 67 65 63 62 62 62 61
73 73 72 72 72 73 73 73 73 72 71 70 69 69 69 70 71 72 74 76 78 80 82 85 87 88 90 91 92 93 95 97 99 101 102 103 104 105 106 107 107 108 108 109 110 112 113 115 116 117 118 118 118 118 117 116 115 114 113 113 112 111 110 109 107 103 100 95 91 89 87 83 78 75 71 69 67 65 62 61 60 59 59 59 58
71 71 71 71 72 72 72 72 71 71 70 69 69 70 71 72 73 75 77 79 81 83 85 86 88 90 91 93 94 95 96 98 99 101 103 105 106 106 107 108 108 109 108 109 110 111 113 115 116 117 117 117 116 115 113 112 111 111 112 112 110 109 107 105 103 98 93 87 83 79 77 74 69 66 64 62 61 60 58 57 57 57 57 56 55
69 70 70 71 71 71 70 70 70 70 70 70 71 72 73 75 76 78 79 81 83 84 85 87 89 91 93 94 96 97 97 98 99 101 103 105 106 107 109 110 110 110 110 110 110 111 112 114 114 115 115 114 112 110 109 108 109 109 109 107 104 101 98 95 92 87 82 77 73 70 67 65 61 58 57 56 55 54 53 53 53 54 54 53 51
69 69 70 70 70 69 69 69 69 70 71 72 73 74 76 78 79 80 82 83 84 85 86 88 90 92 93 95 96 97 98 98 99 100 103 105 107 109 110 111 112 112 112 113 113 113 113 112 112 111 110 108 107 107 106 106 104 103 101 98 95 91 87 84 80 76 72 68 65 64 62 59 55 53 52 51 50 50 50 50 50 50 49 48 46
68 68 68 68 68 68 69 69 70 71 72 74 75 77 79 80 81 82 84 85 86 87 88 89 90 92 94 95 96 97 97 98 99 101 104 106 108 109 111 112 114 115 115 116 115 115 114 112 110 107 104 103 104 104 103 100 97 93 90 87 84 81 78 74 71 69 67 63 60 59 58 55 51 49 47 47 46 46 47 47 46 45 44 43 41
Wind_Direction
42 30 24 16 9 359 348 343 341 337 332 330 331 332 332 332 331 331 332 331 332 331 332 332 332 331 329 329 328 326 325 325 324 323 323 323 323 323 324 324 324 323 322 322 322 322 322 322 322 321 321 320 320 319 318 318 317 316 315 314 314 313 313 314 314 315 315 316 316 318 318 318 318 317 316 316 317 316 314 311 311 312 310 308 306
347 342 337 334 329 326 324 325 325 324 323 324 327 327 327 327 326 327 327 327 327 326 326 327 326 326 325 325 324 323 322 322 321 321 321 321 322 322 323 323 322 322 322 322 323 323 323 322 322 321 320 319 318 318 317 316 316 315 314 313 312 313 313 314 314 315 315 316 316 317 317 317 317 317 316 316 317 317 316 312 311 312 310 307 305
318 316 316 315 315 315 316 317 318 319 321 323 324 324 323 323 324 324 324 324 323 323 322 321 321 321 321 321 321 320 320 320 319 319 319 320 321 321 321 321 321 321 321 322 322 323 322 322 321 321 320 319 318 318 317 315 315 314 313 312 312 312 313 313 314 315 315 315 315 315 316 316 316 316 315 315 316 316 317 314 311 311 310 307 305
306 308 311 313 314 315 315 315 316 317 318 319 319 319 320 320 321 321 320 320 319 319 318 318 318 317 318 319 318 318 318 318 318 317 318 319 319 320 320 320 320 320 320 321 321 322 321 321 321 321 320 319 318 317 317 316 315 314 313 312 311 311 311 312 313 313 314 314 314 314 316 317 316 316 316 315 314 314 315 314 311 309 309 308 304
301 304 307 311 314 315 315 315 314 315 315 314 315 316 317 317 317 317 317 316 315 316 316 316 316 316 317 317 317 317 317 317 317 316 317 318 318 318 319 319 319 319 319 320 321 321 321 321 321 320 320 319 317 317 316 316 315 313 312 311 311 311 311 311 311 312 313 313 313 314 315 316 316 316 315 314 312 312 313 313 311 307 306 308 305
302 304 305 306 307 307 309 310 310 310 310 310 311 313 313 314 314 313 313 313 312 313 314 315 314 314 315 315 315 315 315 315 315 315 316 317 317 317 318 318 318 318 318 319 320 321 321 320 320 320 319 318 317 317 316 315 314 313 312 311 311 311 311 311 310 311 311 311 311 312 312 312 313 313 314 313 312 311 313 313 311 307 305 307 306
301 302 303 303 303 304 303 304 304 305 306 307 308 309 310 310 310 310 310 310 310 311 312 312 311 311 312 313 313 313 313 312 312 313 314 315 316 317 317 317 317 317 318 319 320 320 320 320 320 320 319 318 317 317 316 315 314 312 311 311 311 311 310 310 311 311 310 310 310 310 311 311 311 313 313 314 312 310 311 312 311 308 305 306 307
296 297 299 300 302 303 303 302 301 302 304 306 307 308 308 308 308 308 308 308 308 308 309 309 309 309 310 311 311 311 311 311 311 312 314 315 315 316 316 316 316 317 318 319 319 320 319 319 320 319 319 318 317 317 316 315 313 312 311 311 310 310 309 309 309 309 309 310 310 311 312 311 312 313 312 312 311 308 307 307 308 307 304 304 306
287 289 291 293 295 297 298 298 299 302 304 305 306 307 307 307 307 307 308 308 308 307 307 307 308 308 309 309 310 311 311 311 313 314 314 315 315 316 315 315 316 316 317 318 319 319 318 319 319 319 318 317 317 316 315 314 312 311 311 310 309 309 308 308 308 308 309 309 310 311 311 310 311 312 311 311 310 308 306 305 304 303 301 300 302
284 285 287 288 290 291 293 295 297 300 302 303 304 304 305 306 307 308 309 309 308 307 307 307 308 308 308 309 309 310 310 312 313 313 314 314 314 314 314 314 315 316 317 318 318 318 318 318 318 318 317 316 316 316 314 313 311 311 310 309 308 307 307 306 306 306 307 307 307 309 308 309 310 310 310 309 309 309 306 305 306 304 301 299 298
280 282 284 286 288 290 292 294 297 299 301 301 301 302 303 305 306 307 308 308 307 306 306 306 307 307 307 308 309 309 310 311 312 311 311 312 313 313 313 314 315 315 316 317 318 317 317 317 317 317 316 315 315 314 313 312 311 309 308 308 307 306 305 305 305 304 305 305 305 306 306 306 307 307 307 305 306 306 304 304 306 305 303 301 298
277 278 281 284 286 289 292 294 297 298 299 299 300 301 302 303 304 305 306 307 306 305 305 305 305 305 306 308 308 308 309 310 309 309 311 312 313 313 313 314 314 314 315 316 316 315 316 317 316 315 314 314 313 313 312 310 309 308 307 306 305 304 304 303 303 303 303 303 303 304 304 304 304 305 304 302 302 304 304 303 304 306 305 303 302
280 282 283 285 286 288 290 293 294 296 297 298 299 300 301 302 303 304 304 305 305 304 303 303 303 303 304 306 307 307 308 308 308 310 312 312 312 312 312 312 312 313 314 315 314 314 315 315 315 314 313 313 312 312 311 309 308 307 306 305 304 303 303 302 303 303 303 302 302 303 303 302 302 302 302 301 301 303 303 303 304 305 305 304 304
282 284 285 286 287 288 290 291 292 294 295 297 298 299 300 301 301 302 303 303 304 303 303 302 302 302 302 302 304 306 308 308 308 310 311 310 310 310 311 311 311 312 313 313 313 313 314 314 314 313 313 312 311 311 309 308 307 306 305 304 303 302 302 302 302 303 302 301 302 302 302 302 301 300 299 296 298 299 300 302 303 303 305 305 304
283 284 285 286 288 289 290 291 292 294 295 296 298 299 299 300 301 302 302 302 303 303 303 302 302 301 301 301 301 302 304 305 307 309 309 308 309 310 310 310 310 311 312 313 312 312 313 313 313 312 311 310 310 308 307 306 305 304 303 302 302 301 300 301 301 301 301 301 301 301 301 301 300 299 296 293 293 294 296 299 301 301 303 303 302
283 285 286 288 289 290 291 292 294 295 296 297 298 299 299 300 301 301 301 302 303 303 303 302 302 301 301 300 300 301 301 301 302 305 306 307 309 310 309 309 310 311 312 311 311 311 312 312 312 311 310 309 307 306 305 304 303 302 302 301 301 300 300 300 300 300 300 300 300 300 300 299 298 297 296 294 292 291 292 293 295 297 298 298 298
283 285 286 287 289 290 291 293 294 295 296 296 297 297 298 299 300 301 301 301 302 303 303 302 302 302 302 301 302 301 301 300 300 301 303 306 308 309 309 309 310 311 311 310 310 311 311 311 311 310 309 307 306 305 304 303 302 301 301 301 300 300 300 300 300 300 300 300 300 300 299 298 297 296 295 294 293 292 291 290 291 293 293 294 297
283 284 285 287 288 289 290 291 292 293 294 295 296 297 298 299 300 300 301 301 301 302 302 303 303 303 303 303 303 302 302 301 300 300 301 304 306 308 309 309 310 311 311 310 310 311 311 311 310 309 308 306 305 304 303 302 301 301 301 300 300 300 300 300 300 300 300 300 300 299 299 297 296 295 295 295 294 294 294 293 292 292 293 294 296
283 284 285 286 287 288 289 290 291 292 293 294 296 297 298 299 300 300 301 301 302 302 302 302 302 303 303 303 303 302 302 301 301 300 300 301 304 306 307 307 309 310 310 310 310 311 311 310 309 308 307 305 304 303 303 302 301 301 301 300 300 300 300 300 300 300 300 300 299 299 298 297 296 295 295 295 295 295 295 294 294 293 294 295 295
283 284 285 286 286 287 288 289 291 292 294 295 296 297 298 299 299 300 301 301 302 302 302 302 302 302 301 301 301 301 302 302 302 302 302 302 303 304 305 306 308 309 310 310 310 310 310 309 308 306 305 304 303 303 302 301 301 301 300 300 300 300 300 300 300 300 299 299 298 298 298 297 296 296 296 296 296 296 295 295 295 294 294 295 294
283 284 285 286 286 288 289 290 291 292 294 295 296 297 298 298 299 300 301 301 301 301 301 301 301 301 300 300 301 301 301 302 303 303 304 303 304 305 305 306 308 309 309 309 309 309 308 307 306 304 303 302 302 302 301 301 301 300 300 300 300 300 300 300 299 298 298 298 297 297 297 296 296 296 296 296 296 296 296 295 295 295 295 295 294
283 284 285 286 287 289 290 291 292 292 293 294 295 296 297 298 299 299 300 300 301 301 301 300 300 300 300 300 301 301 302 302 303 304 304 305 305 306 306 306 308 309 308 307 307 307 306 304 303 302 301 301 301 301 300 300 300 300 300 300 300 300 299 299 298 298 297 297 296 296 295 295 294 294 294 295 295 295 295 295 295 295 294 294 293
283 284 286 287 288 289 290 291 292 292 293 294 295 296 296 297 298 299 299 300 300 300 300 300 300 300 300 301 301 302 302 303 303 304 304 305 306 307 307 307 308 308 307 306 306 305 303 302 300 299 299 299 299 299 299 299 299 299 299 299 299 298 298 298 298 297 297 296 296 295 294 294 293 293 293 293 293 294 294 294 294 293 293 293 292
283 285 286 288 289 289 290 291 291 292 292 293 294 295 296 297 298 298 299 299 299 298 298 299 299 300 301 302 302 303 303 304 304 304 305 305 306 307 307 306 306 307 306 305 305 304 302 300 298 297 297 297 297 297 298 298 298 298 298 298 298 297 297 297 297 297 296 296 296 295 294 294 293 293 293 293 292 292 292 292 292 292 292 292 291
285 286 287 288 289 289 290 290 290 291 292 293 294 295 296 297 297 297 297 297 297 298 298 299 300 301 301 302 303 303 303 304 305 305 305 306 306 306 306 305 305 306 305 304 304 303 301 298 297 296 295 296 296 296 296 297 297 297 297 297 297 297 296 296 296 296 296 296 296 295 295 295 294 294 293 293 292 292 291 290 290 290 290 290 290
286 287 288 288 289 290 290 290 291 292 293 294 295 296 297 297 297 297 297 297 298 298 299 300 301 301 302 302 303 304 304 305 305 305 305 305 304 304 304 304 304 305 305 304 303 302 300 298 296 294 294 294 294 295 295 296 296 296 296 296 296 295 295 295 295 295 295 295 295 295 295 294 294 294 293 293 292 292 291 290 290 290 289 290 289
287 288 289 289 290 291 292 292 293 294 295 295 296 296 296 296 296 296 296 297 298 299 300 301 301 302 302 303 304 304 304 304 304 304 304 304 303 303 303 303 303 303 303 303 302 301 299 297 296 294 294 293 293 293 293 293 293 293 293 293 293 294 294 294 294 294 294 294 294 294 294 294 294 293 293 293 292 292 291 291 290 290 289 289 289
288 288 289 290 291 291 292 292 293 294 294 294 294 294 295 295 295 296 296 297 298 300 300 301 301 302 303 304 304 304 304 303 303 303 303 303 303 303 303 303 303 302 301 301 301 299 298 297 295 294 294 293 293 293 293 293 293 292 292 292 293 293 293 293 293 293 293 293 293 293 293 293 292 292 292 292 292 291 291 290 290 289 289 288 287
288 288 289 289 290 290 290 291 291 292 292 292 292 293 293 294 295 296 297 298 299 300 301 301 302 303 303 303 303 303 303 303 303 303 303 303 303 303 303 302 302 302 301 301 301 299 297 296 295 294 294 294 294 294 294 294 293 293 293 293 293 293 292 292 292 292 292 291 291 291 291 291 291 291 290 290 290 290 289 289 289 288 288 287 287
287 287 287 287 288 288 289 289 290 290 290 291 291 292 293 294 295 296 297 299 300 301 301 302 303 303 303 303 303 303 303 303 303 303 303 303 303 302 302 302 302 302 302 301 302 302 299 297 297 296 296 295 295 294 294 294 293 293 293 292 292 292 291 291 291 290 290 290 289 289 289 289 289 289 289 289 289 289 289 288 288 287 286 286 285
285 285 285 286 287 287 288 288 288 288 289 290 291 292 294 295 296 297 299 300 301 302 302 302 302 302 302 302 302 302 302 302 302 302 302 302 302 301 301 302 302 302 302 302 302 303 301 299 298 297 296 295 295 294 294 293 293 292 292 292 292 292 291 291 291 290 290 289 289 288 288 288 288 288 288 288 288 288 287 287 287 286 286 285 285
284 284 285 285 286 286 286 286 287 288 289 291 292 293 295 296 297 299 300 301 301 301 301 301 301 301 301 302 302 302 302 302 302 302 302 301 301 301 301 302 302 302 302 301 302 302 302 300 299 298 296 295 295 295 294 294 293 293 293 293 293 292 292 292 291 291 291 290 290 289 289 288 288 288 287 287 286 286 286 286 286 285 285 285 284
284 284 284 285 285 285 285 286 287 289 290 292 293 295 296 297 298 299 300 300 300 300 300 301 301 301 302 302 302 302 302 302 301 301 301 301 301 301 301 301 301 301 301 301 301 301 300 299 298 298 297 297 297 297 296 295 295 294 294 294 294 293 293 293 292 292 291 291 290 290 289 289 289 288 287 287 286 285 285 285 284 284 284 284 284
284 284 284 284 284 285 286 287 288 290 292 293 294 295 296 297 298 298 299 299 300 300 301 301 302 302 302 302 302 301 301 301 300 300 300 300 300 301 301 300 300 300 300 300 300 300 299 299 298 298 298 298 298 298 297 296 296 295 295 295 294 294 293 293 293 292 292 291 291 290 290 289 289 288 287 287 286 285 285 284 284 283 283 283 283
284 284 284 284 285 286 287 288 290 291 293 294 295 296 296 297 297 298 299 300 300 301 301 302 302 302 302 301 301 301 300 300 300 299 300 300 300 300 300 300 300 300 300 300 301 300 300 299 299 299 299 299 299 299 299 298 297 297 296 296 295 294 294 294 293 293 293 292 291 291 290 290 289 288 287 287 286 285 285 284 284 283 283 283 282
283 283 283 284 285 287 288 289 291 292 293 294 295 296 296 297 298 299 300 300 301 301 301 301 302 301 301 301 300 299 299 299 299 299 299 299 299 300 300 300 300 301 301 301 302 302 302 302 302 302 302 302 302 302 301 300 299 298 298 297 296 295 295 294 294 294 294 293 292 291 290 290 289 288 287 287 286 286 285 284 284 283 283 282 282
282 283 284 285 286 288 289 290 292 293 294 295 295 296 297 298 299 299 300 301 301 301 301 301 301 301 300 299 299 298 298 298 298 299 299 300 300 300 301 301 302 302 303 303 304 304 304 304 304 304 304 304 304 304 303 301 299 299 298 297 296 296 296 295 295 294 294 293 292 291 290 290 289 288 288 287 287 286 285 284 284 283 283 282 282
282 284 285 287 288 289 291 292 293 294 295 295 296 297 298 298 299 300 300 301 301 301 301 301 300 300 299 298 298 298 298 299 299 299 300 300 301 301 302 303 303 304 304 305 305 305 305 305 305 306 305 305 304 304 302 301 300 299 298 297 297 296 296 296 295 294 294 293 292 291 290 290 289 289 288 288 287 286 285 284 284 283 283 282 282
285 286 288 289 290 291 292 293 294 295 295 296 296 297 298 298 299 300 300 301 301 301 300 300 299 299 299 299 299 299 300 300 301 301 301 302 302 303 304 304 305 305 305 306 305 305 305 305 305 305 305 304 304 303 302 301 300 300 299 298 298 297 296 295 295 294 293 292 291 290 289 289 288 288 287 287 286 285 284 284 284 283 283 282 281
287 288 289 290 291 292 293 294 294 295 295 295 296 297 298 299 299 300 300 301 300 300 299 299 299 299 300 300 300 301 301 302 302 303 303 304 304 305 305 306 306 306 306 306 306 305 305 305 305 305 304 304 304 303 302 302 301 300 300 299 298 298 297 295 295 294 294 292 291 289 289 288 287 286 286 285 285 284 283 283 283 283 282 282 281
288 289 290 291 292 292 293 294 294 294 294 295 297 297 298 299 300 300 300 300 299 299 299 299 300 300 300 301 301 302 303 304 304 305 306 306 306 306 306 307 307 307 306 306 306 305 304 304 304 304 304 304 304 304 303 303 302 301 300 300 299 298 298 296 296 295 294 293 291 290 289 288 287 286 285 285 284 283 283 283 283 283 282 282 281
288 289 290 291 292 293 293 294 294 294 295 296 297 298 299 299 300 300 299 299 299 298 298 299 300 301 301 302 303 304 304 305 306 306 306 306 307 307 307 307 307 307 306 306 305 305 304 304 304 304 304 305 305 305 304 304 303 302 301 300 299 298 297 296 296 295 294 292 291 290 289 288 287 286 286 285 284 283 283 283 283 282 282 281 280
289 290 291 292 292 293 293 294 294 295 296 297 298 298 299 299 299 299 298 298 298 299 299 300 301 302 303 303 304 305 305 306 306 306 306 306 306 307 307 307 307 306 306 305 305 305 305 305 305 306 306 306 306 306 305 304 303 302 301 300 299 298 297 296 296 295 294 293 291 290 289 288 287 286 285 284 283 283 283 283 282 282 281 280 279
290 291 292 292 293 293 294 294 295 296 297 297 298 299 299 299 299 299 298 299 299 301 302 302 303 303 303 304 305 305 305 306 305 305 306 306 306 306 307 306 306 306 306 306 306 306 306 306 306 307 307 307 307 306 305 304 303 302 301 300 299 298 298 297 297 296 296 294 292 290 289 288 287 286 284 283 282 282 282 282 281 281 280 279 279
291 292 292 293 293 294 294 294 295 296 297 297 298 299 299 299 299 299 300 301 302 303 303 304 304 304 304 305 305 306 306 306 305 305 305 305 306 306 305 305 305 305 306 306 306 307 307 307 308 308 308 307 307 306 306 304 303 303 302 301 300 299 298 298 297 297 296 295 293 291 290 289 287 285 284 282 281 280 279 279 279 279 279 278 278
291 292 293 293 293 294 294 295 296 296 296 297 298 298 298 299 300 301 302 303 303 304 304 304 305 305 306 306 306 306 306 306 305 305 305 305 305 305 305 305 306 306 306 307 307 307 308 308 308 308 308 307 307 306 306 305 304 303 302 301 301 300 299 297 296 296 296 295 294 292 290 289 287 285 283 280 278 277 276 276 276 276 277 277 277
291 292 292 293 293 293 294 295 295 296 297 297 298 298 299 300 301 302 303 304 304 305 305 306 306 306 306 306 306 306 306 305 305 305 305 305 306 306 306 306 306 306 307 307 308 308 309 309 308 308 308 307 307 306 306 305 304 303 302 301 301 300 298 297 296 296 296 295 294 293 291 290 288 285 282 278 275 273 272 272 273 273 274 275 276
291 291 292 292 293 293 294 294 295 296 296 297 298 299 300 302 302 303 303 304 305 305 306 306 306 306 306 306 306 306 306 306 306 306 306 307 307 307 307 307 307 307 308 308 309 309 309 308 308 308 308 308 308 307 306 305 304 303 301 300 300 299 298 298 298 298 297 296 295 293 292 291 288 284 280 275 272 270 269 269 270 271 273 274 275
291 291 291 292 292 293 293 294 294 295 296 298 299 301 301 302 303 303 304 305 305 306 306 306 306 306 306 306 306 306 306 306 307 307 307 307 307 308 308 308 308 309 309 309 309 309 308 308 308 309 309 309 308 307 306 304 303 301 300 300 300 300 299 300 300 300 299 298 296 294 292 290 286 281 276 271 268 267 265 266 267 269 272 274 275
290 290 291 291 292 292 293 294 295 296 298 299 300 301 302 303 304 304 305 305 305 305 305 305 305 306 306 306 306 307 307 308 308 308 307 307 308 308 309 309 309 310 310 309 309 309 309 309 309 309 309 308 307 306 304 303 302 301 301 301 301 301 301 301 301 300 299 298 297 295 293 290 285 279 273 269 266 264 264 264 266 268 271 273 275
289 290 290 291 292 292 294 295 297 298 299 300 301 302 303 304 304 305 305 305 305 305 305 305 305 306 306 307 307 308 308 308 308 308 308 308 309 309 310 310 310 310 310 311 311 311 311 311 310 310 309 308 307 305 304 303 303 303 303 302 303 302 302 302 301 300 300 299 299 297 294 291 285 278 272 268 265 263 263 264 265 266 268 271 274
Height
5902 5901 5901 5901 5900 5900 5900 5899 5899 5898 5897 5897 5896 5895 5894 5893 5892 5891 5890 5889 5888 5887 5886 5884 5883 5881 5880 5878 5877 5875 5874 5872 5871 5869 5868 5866 5864 5863 5861 5859 5857 5856 5854 5852 5850 5849 5847 5844 5843 5840 5838 5836 5834 5831 5829 5826 5824 5821 5818 5815 5812 5810 5808 5805 5803 5801 5798 5795 5792 5789 5787 5784 5781 5778 5776 5773 5771 5769 5767 5765 5762 5760 5758 5756 5754
5901 5901 5901 5900 5900 5900 5899 5898 5898 5897 5896 5895 5894 5893 5892 5891 5890 5889 5888 5887 5886 5885 5884 5883 5882 5880 5878 5877 5875 5874 5872 5870 5869 5867 5866 5864 5862 5860 5859 5857 5855 5853 5851 5849 5847 5845 5843 5841 5839 5837 5835 5833 5831 5829 5826 5823 5821 5818 5815 5812 5809 5806 5803 5801 5799 5796 5794 5791 5788 5785 5783 5780 5777 5775 5772 5769 5767 5765 5763 5761 5759 5757 5755 5753 5751
5901 5900 5900 5900 5899 5899 5898 5898 5897 5896 5895 5894 5893 5892 5891 5890 5889 5888 5887 5886 5885 5883 5882 5881 5880 5878 5877 5875 5873 5872 5870 5869 5867 5865 5863 5862 5860 5858 5856 5854 5852 5850 5848 5846 5844 5842 5840 5838 5836 5834 5832 5829 5827 5825 5823 5820 5817 5815 5812 5809 5806 5803 5799 5796 5794 5792 5790 5787 5784 5781 5779 5776 5774 5771 5768 5766 5763 5761 5759 5757 5755 5753 5751 5749 5747
5900 5900 5899 5899 5898 5898 5897 5896 5896 5895 5894 5893 5892 5891 5890 5889 5888 5887 5886 5884 5883 5882 5880 5879 5878 5876 5875 5873 5871 5869 5868 5866 5865 5863 5861 5859 5857 5855 5853 5851 5849 5847 5845 5843 5841 5839 5837 5835 5832 5830 5828 5826 5823 5821 5819 5817 5814 5811 5808 5805 5802 5800 5797 5794 5791 5788 5785 5783 5780 5777 5775 5772 5769 5766 5764 5762 5759 5757 5755 5753 5751 5749 5748 5746 5743
5900 5899 5899 5898 5898 5897 5896 5895 5894 5894 5893 5892 5891 5890 5889 5888 5887 5886 5884 5883 5881 5880 5879 5877 5876 5874 5873 5871 5869 5867 5865 5863 5862 5860 5858 5857 5855 5853 5851 5849 5846 5844 5842 5840 5838 5835 5833 5831 5829 5827 5824 5821 5819 5816 5814 5812 5809 5806 5803 5800 5797 5795 5793 5790 5788 5785 5782 5779 5776 5773 5771 5768 5766 5763 5760 5758 5755 5753 5752 5749 5747 5745 5743 5741 5740
5899 5899 5898 5898 5897 5897 5896 5895 5893 5893 5892 5891 5890 5889 5887 5886 5885 5884 5883 5881 5879 5878 5877 5876 5874 5872 5871 5869 5868 5866 5863 5861 5859 5857 5855 5854 5852 5850 5848 5846 5844 5841 5839 5836 5834 5832 5829 5827 5825 5822 5820 5817 5814 5812 5809 5807 5804 5801 5798 5795 5792 5789 5787 5785 5783 5780 5778 5775 5772 5769 5767 5765 5763 5760 5757 5754 5752 5750 5747 5744 5742 5740 5738 5736 5734
5898 5897 5897 5896 5896 5895 5895 5894 5893 5891 5890 5889 5888 5887 5886 5885 5884 5882 5881 5879 5878 5876 5875 5874 5872 5870 5868 5867 5865 5864 5862 5860 5858 5855 5853 5851 5849 5847 5845 5842 5840 5838 5836 5833 5831 5828 5825 5823 5820 5818 5815 5812 5809 5807 5804 5802 5799 5796 5793 5790 5787 5785 5783 5780 5777 5775 5773 5771 5768 5766 5763 5760 5758 5756 5753 5750 5748 5746 5744 5741 5738 5735 5733 5731 5729
5897 5896 5896 5895 5894 5894 5893 5892 5891 5890 5889 5888 5886 5885 5884 5883 5881 5880 5879 5877 5875 5874 5873 5872 5870 5868 5866 5864 5863 5861 5859 5857 5855 5853 5850 5848 5846 5843 5841 5839 5837 5835 5832 5830 5827 5824 5821 5819 5816 5813 5810 5807 5805 5802 5800 5797 5794 5791 5788 5785 5783 5780 5778 5776 5774 5772 5768 5765 5762 5760 5758 5755 5752 5750 5749 5746 5744 5742 5741 5738 5735 5732 5729 5727 5725
5896 5895 5894 5894 5893 5892 5891 5890 5889 5888 5887 5886 5884 5883 5882 5880 5879 5878 5876 5875 5873 5871 5870 5869 5867 5865 5863 5861 5859 5857 5855 5853 5851 5849 5846 5844 5842 5840 5837 5835 5833 5831 5829 5826 5824 5820 5817 5815 5812 5809 5806 5803 5800 5798 5795 5792 5789 5786 5783 5781 5778 5776 5774 5772 5770 5768 5765 5761 5758 5755 5754 5751 5748 5745 5743 5741 5739 5737 5735 5734 5733 5731 5728 5725 5722
5894 5893 5892 5892 5891 5890 5889 5888 5887 5886 5885 5883 5882 5881 5879 5878 5876 5875 5874 5872 5870 5868 5867 5865 5864 5862 5860 5858 5856 5854 5852 5850 5847 5845 5843 5841 5838 5836 5834 5832 5829 5827 5825 5822 5820 5817 5814 5811 5808 5804 5801 5798 5795 5793 5790 5788 5785 5782 5779 5776 5773 5771 5769 5767 5765 5763 5761 5758 5755 5752 5749 5747 5744 5741 5739 5736 5734 5732 5729 5727 5726 5726 5725 5723 5720
5892 5891 5890 5889 5889 5888 5887 5886 5885 5884 5882 5881 5879 5878 5877 5875 5874 5872 5871 5869 5867 5865 5864 5862 5861 5859 5857 5855 5853 5851 5849 5847 5844 5842 5840 5838 5835 5833 5830 5828 5825 5823 5820 5818 5816 5812 5810 5807 5804 5800 5796 5793 5791 5788 5785 5783 5780 5777 5774 5771 5769 5766 5764 5762 5761 5759 5757 5754 5752 5749 5746 5743 5741 5738 5735 5732 5729 5728 5725 5722 5720 5719 5719 5718 5716
5890 5889 5888 5888 5887 5885 5884 5883 5882 5881 5879 5878 5876 5875 5874 5872 5871 5869 5868 5866 5864 5862 5860 5859 5858 5855 5854 5852 5850 5847 5846 5844 5841 5839 5837 5834 5831 5829 5826 5824 5821 5819 5816 5814 5811 5808 5805 5803 5799 5795 5792 5789 5786 5783 5781 5778 5775 5773 5770 5767 5764 5762 5759 5757 5756 5754 5752 5750 5747 5745 5743 5740 5737 5735 5732 5728 5725 5723 5720 5717 5715 5714 5712 5710 5709
5888 5887 5886 5885 5884 5883 5882 5881 5880 5879 5877 5875 5874 5872 5871 5869 5868 5866 5865 5863 5860 5858 5857 5856 5854 5853 5851 5850 5847 5844 5842 5840 5838 5835 5833 5830 5827 5825 5822 5820 5817 5815 5812 5809 5806 5803 5801 5798 5794 5790 5787 5784 5780 5777 5775 5772 5769 5767 5765 5762 5759 5757 5754 5752 5751 5749 5747 5745 5742 5740 5738 5736 5734 5732 5729 5725 5721 5718 5715 5713 5711 5709 5707 5704 5702
5885 5885 5884 5883 5882 5881 5879 5878 5877 5876 5875 5873 5872 5870 5868 5867 5865 5863 5861 5859 5857 5855 5853 5852 5850 5849 5848 5847 5845 5842 5839 5836 5834 5833 5830 5826 5824 5821 5819 5816 5813 5810 5808 5805 5801 5798 5795 5792 5789 5786 5782 5778 5775 5772 5769 5766 5764 5762 5759 5757 5754 5752 5749 5747 5745 5744 5742 5739 5737 5735 5732 5730 5728 5727 5725 5722 5718 5715 5712 5709 5707 5704 5702 5698 5695
5883 5882 5881 5880 5879 5878 5877 5875 5874 5873 5872 5870 5869 5867 5865 5863 5862 5860 5858 5856 5854 5851 5849 5847 5845 5844 5843 5842 5841 5840 5838 5834 5832 5830 5826 5823 5820 5818 5815 5812 5809 5806 5803 5800 5796 5793 5790 5787 5784 5780 5777 5773 5770 5767 5764 5761 5759 5756 5754 5751 5749 5747 5744 5742 5740 5738 5736 5734 5732 5730 5727 5725 5722 5721 5720 5718 5716 5713 5710 5706 5703 5700 5697 5694 5690
5880 5879 5878 5877 5876 5875 5873 5872 5871 5869 5868 5867 5865 5863 5861 5860 5858 5856 5854 5852 5850 5848 5845 5843 5841 5839 5838 5837 5835 5835 5835 5832 5830 5828 5824 5820 5817 5813 5810 5807 5804 5802 5799 5795 5791 5788 5785 5781 5778 5774 5771 5768 5765 5762 5759 5757 5754 5751 5748 5746 5744 5741 5739 5737 5735 5733 5731 5729 5727 5725 5722 5719 5717 5715 5713 5712 5710 5709 5706 5703 5699 5695 5693 5691 5688
5877 5876 5875 5874 5873 5871 5870 5868 5867 5866 5864 5863 5861 5859 5857 5856 5854 5852 5850 5848 5846 5844 5841 5838 5836 5834 5832 5831 5829 5829 5828 5826 5825 5825 5823 5818 5815 5810 5805 5801 5799 5796 5793 5789 5785 5782 5779 5775 5771 5767 5764 5762 5759 5757 5754 5751 5749 5746 5743 5740 5738 5735 5733 5732 5730 5727 5725 5723 5721 5719 5717 5714 5711 5709 5707 5705 5704 5702 5700 5698 5695 5691 5688 5687 5684
5874 5873 5872 5871 5869 5868 5867 5865 5864 5862 5861 5859 5857 5855 5853 5851 5849 5847 5845 5843 5842 5840 5837 5834 5832 5830 5827 5825 5823 5821 5821 5820 5818 5819 5819 5817 5813 5808 5802 5797 5794 5791 5787 5783 5779 5775 5772 5768 5765 5761 5757 5754 5752 5750 5748 5745 5742 5740 5738 5734 5731 5729 5727 5726 5723 5722 5719 5717 5715 5713 5711 5708 5706 5703 5701 5699 5697 5695 5693 5691 5689 5686 5683 5682 5680
5871 5870 5869 5868 5866 5865 5863 5862 5860 5858 5857 5855 5853 5851 5849 5847 5845 5843 5840 5838 5836 5835 5832 5830 5827 5825 5822 5820 5818 5815 5813 5813 5811 5811 5813 5814 5811 5807 5801 5795 5791 5788 5783 5777 5773 5770 5767 5761 5758 5755 5750 5746 5744 5743 5741 5738 5735 5733 5731 5728 5725 5723 5721 5720 5717 5715 5713 5711 5709 5707 5705 5702 5700 5698 5695 5693 5691 5689 5687 5684 5682 5680 5677 5675 5674
5867 5866 5865 5864 5862 5861 5859 5858 5856 5854 5852 5850 5848 5846 5844 5842 5840 5838 5836 5834 5831 5830 5828 5825 5823 5820 5818 5815 5813 5810 5807 5805 5804 5803 5803 5806 5807 5803 5798 5793 5789 5785 5780 5774 5768 5764 5761 5757 5752 5748 5745 5740 5737 5736 5733 5731 5729 5727 5724 5721 5719 5717 5715 5713 5711 5709 5707 5705 5702 5700 5698 5696 5694 5692 5689 5687 5685 5683 5680 5678 5676 5673 5671 5669 5667
5864 5862 5861 5860 5858 5857 5855 5853 5852 5850 5848 5846 5844 5842 5840 5837 5835 5833 5831 5829 5827 5825 5823 5820 5817 5815 5812 5810 5807 5804 5802 5799 5796 5794 5793 5795 5798 5798 5794 5790 5787 5783 5777 5771 5766 5760 5755 5751 5747 5743 5738 5735 5732 5729 5727 5724 5722 5720 5717 5715 5712 5710 5708 5706 5704 5703 5700 5698 5696 5694 5692 5689 5687 5684 5682 5680 5678 5676 5673 5671 5669 5666 5664 5662 5659
5859 5858 5857 5855 5854 5852 5851 5849 5847 5845 5843 5841 5839 5837 5835 5833 5831 5829 5826 5824 5822 5819 5817 5815 5812 5809 5806 5804 5801 5798 5796 5793 5790 5787 5785 5784 5787 5789 5786 5783 5783 5780 5774 5768 5764 5759 5752 5746 5742 5738 5733 5730 5727 5724 5721 5718 5715 5713 5711 5708 5706 5704 5701 5699 5697 5695 5693 5691 5689 5687 5684 5682 5680 5677 5675 5673 5670 5668 5666 5663 5661 5659 5656 5654 5651
5855 5854 5852 5851 5849 5848 5846 5844 5842 5841 5839 5837 5835 5833 5830 5828 5826 5824 5821 5819 5817 5814 5811 5809 5806 5803 5800 5797 5795 5792 5789 5787 5783 5780 5778 5776 5776 5779 5778 5775 5775 5774 5769 5764 5761 5756 5750 5743 5737 5733 5729 5725 5722 5718 5716 5713 5710 5708 5705 5702 5700 5698 5695 5692 5690 5687 5685 5683 5681 5679 5677 5674 5672 5670 5667 5665 5663 5660 5658 5656 5653 5651 5648 5646 5643
5850 5849 5848 5846 5845 5843 5841 5840 5838 5836 5834 5832 5830 5828 5826 5824 5821 5819 5816 5814 5812 5809 5806 5803 5801 5798 5794 5791 5788 5785 5781 5779 5776 5773 5770 5768 5766 5768 5769 5766 5767 5768 5763 5758 5755 5750 5745 5739 5733 5728 5724 5721 5717 5714 5711 5708 5705 5702 5699 5697 5693 5691 5689 5685 5683 5680 5677 5675 5672 5670 5668 5665 5663 5661 5659 5656 5655 5652 5650 5648 5645 5643 5640 5637 5635
5846 5845 5843 5841 5840 5838 5837 5835 5833 5831 5830 5828 5825 5823 5821 5818 5816 5814 5811 5809 5806 5803 5801 5798 5795 5792 5789 5785 5782 5779 5775 5771 5768 5765 5762 5759 5756 5756 5758 5757 5756 5759 5757 5752 5748 5745 5740 5734 5728 5723 5719 5716 5712 5709 5705 5702 5700 5696 5692 5691 5687 5683 5682 5678 5675 5673 5669 5667 5664 5660 5658 5656 5653 5651 5649 5647 5645 5643 5641 5638 5637 5634 5632 5629 5626
5841 5840 5838 5837 5835 5833 5832 5830 5828 5826 5824 5822 5820 5818 5815 5813 5810 5808 5805 5803 5800 5798 5795 5792 5789 5786 5783 5780 5776 5772 5768 5764 5761 5757 5753 5750 5747 5745 5746 5747 5746 5747 5747 5744 5741 5737 5734 5728 5723 5718 5714 5711 5707 5704 5701 5697 5694 5691 5686 5684 5681 5677 5674 5671 5667 5664 5662 5659 5655 5652 5648 5646 5643 5641 5638 5636 5634 5632 5630 5628 5626 5624 5621 5619 5616
5836 5835 5833 5832 5830 5828 5826 5824 5822 5820 5818 5816 5814 5812 5809 5807 5805 5802 5800 5797 5795 5792 5789 5786 5782 5780 5777 5773 5769 5765 5762 5757 5754 5750 5746 5742 5739 5735 5733 5734 5736 5738 5738 5737 5734 5729 5725 5721 5716 5712 5708 5705 5702 5698 5696 5693 5688 5685 5682 5677 5675 5671 5666 5663 5660 5656 5653 5650 5646 5643 5639 5636 5634 5630 5627 5625 5623 5621 5618 5616 5615 5612 5610 5607 5605
5831 5830 5828 5827 5825 5823 5821 5819 5817 5815 5813 5811 5809 5806 5804 5801 5799 5797 5794 5792 5789 5786 5783 5780 5776 5773 5770 5766 5762 5758 5755 5751 5747 5743 5739 5734 5730 5726 5722 5719 5720 5724 5727 5731 5731 5724 5718 5713 5709 5706 5702 5697 5695 5692 5688 5686 5682 5677 5675 5671 5667 5664 5660 5655 5652 5648 5644 5640 5637 5633 5630 5627 5624 5621 5617 5614 5611 5609 5606 5604 5602 5600 5597 5595 5593
5826 5825 5823 5822 5820 5818 5816 5814 5812 5810 5808 5806 5803 5801 5799 5796 5793 5791 5789 5786 5784 5780 5777 5774 5770 5766 5763 5760 5756 5752 5748 5744 5740 5735 5731 5727 5722 5717 5714 5709 5706 5707 5710 5716 5723 5720 5713 5708 5702 5699 5697 5691 5687 5685 5680 5676 5673 5668 5664 5662 5658 5655 5651 5646 5642 5639 5635 5631 5627 5623 5620 5617 5614 5611 5607 5603 5599 5596 5594 5591 5589 5587 5585 5582 5580
5821 5820 5818 5816 5815 5813 5811 5809 5807 5805 5802 5800 5798 5796 5793 5791 5788 5785 5783 5780 5778 5775 5771 5767 5763 5759 5756 5753 5749 5745 5741 5736 5732 5728 5723 5719 5715 5710 5705 5701 5697 5696 5695 5697 5708 5712 5705 5701 5697 5690 5688 5686 5680 5676 5673 5667 5663 5659 5654 5651 5648 5644 5640 5637 5633 5629 5625 5621 5617 5613 5609 5606 5603 5599 5596 5592 5588 5584 5581 5579 5576 5574 5572 5570 5568
5816 5815 5813 5811 5809 5808 5806 5803 5801 5799 5797 5794 5792 5790 5787 5785 5782 5780 5777 5774 5771 5768 5765 5761 5757 5753 5749 5746 5743 5738 5734 5729 5724 5720 5716 5712 5708 5704 5699 5695 5690 5687 5685 5683 5690 5700 5697 5690 5689 5684 5677 5676 5673 5667 5664 5659 5653 5649 5645 5640 5636 5633 5628 5625 5622 5617 5613 5610 5605 5601 5598 5595 5591 5588 5585 5581 5577 5573 5569 5567 5563 5561 5559 5557 5556
5811 5809 5807 5806 5804 5802 5800 5797 5795 5793 5791 5789 5787 5784 5782 5779 5777 5774 5771 5768 5765 5761 5758 5755 5751 5747 5743 5739 5735 5732 5727 5722 5717 5713 5709 5705 5701 5697 5692 5689 5684 5679 5677 5674 5674 5685 5689 5681 5676 5675 5669 5665 5665 5659 5652 5649 5644 5638 5635 5630 5624 5620 5616 5612 5609 5604 5600 5596 5592 5587 5584 5581 5578 5575 5572 5569 5565 5561 5558 5554 5551 5548 5546 5545 5544
5805 5803 5801 5800 5798 5795 5793 5791 5789 5787 5785 5783 5781 5779 5776 5773 5771 5768 5765 5762 5758 5755 5751 5748 5744 5740 5736 5731 5727 5724 5719 5715 5710 5706 5703 5698 5695 5691 5686 5682 5679 5672 5668 5666 5663 5667 5677 5675 5667 5664 5659 5653 5654 5652 5641 5635 5633 5627 5623 5619 5612 5606 5602 5598 5594 5591 5587 5582 5576 5572 5569 5566 5563 5560 5557 5554 5551 5549 5545 5542 5539 5536 5534 5532 5531
5799 5797 5795 5794 5791 5789 5787 5785 5784 5782 5780 5778 5775 5773 5770 5768 5765 5762 5759 5755 5751 5748 5744 5740 5736 5732 5728 5724 5719 5716 5712 5708 5703 5699 5696 5693 5688 5685 5681 5675 5672 5668 5660 5657 5654 5652 5658 5665 5661 5655 5650 5642 5640 5641 5632 5622 5619 5615 5611 5606 5599 5594 5590 5584 5579 5577 5574 5567 5562 5558 5554 5551 5548 5544 5541 5539 5536 5534 5531 5529 5526 5524 5522 5521 5519
5793 5791 5789 5788 5785 5784 5782 5780 5778 5776 5774 5772 5769 5767 5764 5762 5759 5756 5752 5749 5744 5741 5736 5732 5729 5724 5720 5716 5711 5708 5705 5701 5697 5692 5689 5686 5682 5678 5675 5669 5664 5661 5654 5647 5644 5640 5640 5647 5651 5646 5640 5634 5629 5627 5620 5610 5603 5599 5596 5593 5586 5581 5577 5571 5565 5563 5560 5553 5546 5543 5539 5535 5533 5529 5526 5524 5522 5519 5516 5514 5512 5511 5510 5508 5507
5787 5785 5783 5782 5780 5778 5776 5774 5772 5770 5768 5766 5763 5761 5758 5755 5752 5748 5745 5741 5737 5733 5730 5725 5721 5717 5713 5709 5704 5701 5698 5694 5690 5686 5683 5679 5675 5671 5666 5661 5656 5651 5647 5639 5632 5628 5624 5627 5633 5633 5627 5621 5617 5613 5606 5596 5589 5584 5579 5575 5570 5566 5563 5558 5552 5549 5547 5539 5532 5528 5524 5520 5517 5514 5511 5509 5507 5504 5501 5499 5498 5496 5495 5495 5494
5781 5779 5777 5776 5774 5772 5770 5768 5766 5764 5762 5759 5756 5754 5751 5748 5745 5741 5737 5734 5730 5726 5722 5718 5714 5710 5706 5702 5697 5693 5690 5688 5684 5680 5676 5671 5667 5663 5657 5652 5647 5641 5637 5630 5621 5615 5611 5608 5612 5616 5614 5608 5602 5600 5592 5579 5572 5570 5565 5560 5556 5550 5546 5544 5540 5536 5533 5526 5518 5513 5509 5505 5501 5499 5496 5494 5491 5488 5486 5484 5483 5481 5481 5482 5482
5775 5773 5771 5769 5767 5765 5763 5761 5759 5757 5754 5752 5749 5747 5744 5741 5737 5734 5730 5727 5723 5719 5714 5710 5706 5702 5698 5694 5690 5686 5682 5679 5676 5672 5668 5663 5659 5655 5648 5642 5638 5632 5626 5621 5612 5604 5599 5595 5593 5595 5596 5594 5588 5585 5580 5567 5555 5551 5546 5542 5543 5540 5532 5526 5524 5522 5519 5513 5505 5500 5495 5490 5486 5483 5481 5479 5476 5473 5470 5468 5467 5467 5467 5468 5468
5769 5767 5765 5763 5761 5758 5756 5754 5752 5749 5747 5744 5742 5739 5737 5734 5730 5727 5723 5720 5715 5711 5706 5703 5698 5694 5690 5686 5681 5678 5673 5670 5667 5662 5658 5654 5650 5646 5639 5631 5627 5623 5616 5610 5602 5594 5587 5582 5581 5578 5576 5576 5573 5568 5564 5555 5544 5536 5527 5519 5520 5524 5521 5514 5510 5508 5505 5499 5492 5487 5482 5476 5471 5469 5466 5463 5461 5457 5453 5453 5452 5452 5452 5452 5452
5762 5760 5758 5756 5753 5751 5749 5747 5744 5741 5739 5737 5734 5732 5729 5727 5723 5719 5716 5712 5708 5704 5699 5695 5691 5686 5682 5678 5672 5668 5664 5660 5656 5652 5647 5642 5639 5636 5630 5621 5615 5610 5605 5599 5591 5583 5575 5569 5567 5564 5559 5558 5557 5551 5545 5540 5531 5522 5515 5504 5496 5497 5499 5497 5497 5495 5489 5482 5476 5472 5469 5464 5457 5454 5451 5448 5446 5441 5437 5438 5438 5436 5436 5435 5435
5756 5753 5751 5748 5746 5744 5741 5739 5736 5733 5731 5729 5727 5725 5722 5719 5715 5711 5707 5704 5700 5696 5692 5688 5684 5679 5674 5670 5664 5659 5655 5651 5646 5641 5636 5630 5625 5623 5620 5613 5605 5598 5592 5587 5579 5571 5563 5557 5554 5550 5544 5541 5540 5533 5527 5523 5515 5504 5498 5491 5481 5476 5473 5471 5476 5481 5475 5465 5458 5455 5453 5449 5443 5440 5437 5433 5430 5425 5422 5422 5423 5422 5421 5420 5419
5749 5746 5744 5741 5738 5736 5733 5731 5728 5725 5722 5721 5718 5716 5714 5711 5707 5703 5699 5695 5691 5688 5685 5681 5677 5672 5667 5661 5656 5650 5646 5641 5637 5631 5626 5621 5615 5610 5606 5601 5594 5586 5578 5573 5567 5558 5549 5542 5539 5535 5528 5524 5523 5517 5508 5504 5496 5486 5479 5473 5464 5459 5453 5447 5451 5460 5460 5449 5439 5435 5436 5433 5428 5425 5423 5419 5415 5411 5409 5408 5408 5409 5408 5406 5405
5741 5739 5736 5733 5730 5728 5725 5722 5719 5716 5714 5712 5709 5707 5705 5702 5699 5696 5692 5688 5684 5680 5676 5673 5669 5664 5659 5654 5647 5642 5637 5632 5627 5622 5617 5613 5607 5602 5597 5591 5583 5574 5564 5556 5551 5545 5537 5529 5524 5521 5513 5506 5504 5500 5492 5484 5477 5468 5462 5456 5448 5440 5434 5427 5426 5433 5439 5433 5422 5417 5418 5417 5413 5410 5409 5405 5401 5398 5396 5394 5394 5396 5395 5393 5393
5734 5731 5728 5725 5722 5719 5716 5713 5711 5708 5705 5703 5700 5698 5696 5693 5690 5687 5683 5680 5676 5671 5667 5663 5659 5655 5651 5646 5640 5633 5627 5622 5617 5613 5608 5604 5599 5593 5588 5583 5575 5566 5555 5544 5535 5528 5521 5514 5509 5507 5501 5491 5484 5481 5475 5465 5456 5449 5443 5437 5430 5421 5414 5409 5405 5407 5413 5412 5403 5399 5400 5402 5399 5395 5394 5392 5389 5386 5384 5382 5382 5383 5382 5381 5382
5725 5723 5720 5717 5713 5710 5707 5704 5702 5700 5697 5694 5692 5689 5687 5684 5681 5678 5675 5671 5666 5662 5658 5653 5649 5644 5640 5636 5632 5625 5617 5610 5605 5601 5597 5594 5590 5585 5579 5573 5566 5558 5548 5537 5526 5516 5508 5499 5492 5489 5486 5477 5467 5463 5458 5447 5436 5429 5422 5416 5411 5404 5397 5392 5388 5387 5390 5388 5382 5378 5381 5386 5384 5379 5379 5379 5376 5374 5373 5371 5371 5372 5371 5371 5372
5717 5714 5711 5708 5705 5702 5698 5695 5693 5691 5688 5686 5684 5681 5679 5676 5673 5669 5666 5662 5658 5653 5649 5644 5639 5634 5629 5625 5621 5617 5610 5601 5592 5587 5583 5581 5578 5574 5568 5563 5556 5548 5539 5528 5518 5509 5500 5489 5479 5473 5470 5463 5453 5445 5440 5430 5418 5409 5401 5394 5390 5386 5380 5375 5373 5372 5372 5370 5363 5356 5358 5367 5368 5363 5363 5364 5362 5362 5362 5361 5361 5361 5361 5362 5363
5709 5706 5703 5700 5697 5694 5690 5687 5684 5682 5680 5678 5675 5673 5671 5667 5664 5661 5657 5654 5650 5644 5639 5634 5628 5623 5618 5613 5609 5605 5599 5592 5583 5574 5567 5564 5562 5559 5554 5550 5545 5538 5530 5520 5508 5500 5491 5481 5471 5461 5454 5448 5440 5430 5422 5414 5403 5394 5384 5376 5371 5365 5358 5355 5356 5357 5357 5354 5347 5338 5338 5346 5350 5347 5348 5348 5347 5348 5350 5350 5350 5351 5351 5352 5354
5700 5697 5694 5691 5688 5686 5682 5679 5676 5673 5671 5670 5667 5664 5662 5659 5656 5653 5649 5645 5641 5636 5630 5625 5619 5613 5607 5602 5597 5593 5587 5581 5573 5564 5554 5547 5544 5541 5536 5533 5530 5525 5519 5511 5502 5492 5482 5471 5461 5451 5441 5433 5424 5414 5406 5397 5387 5378 5368 5362 5357 5349 5339 5335 5337 5339 5340 5338 5334 5326 5322 5327 5332 5331 5332 5333 5334 5335 5338 5338 5340 5340 5341 5342 5344
5692 5689 5686 5683 5680 5677 5674 5671 5668 5665 5663 5661 5658 5655 5653 5650 5647 5644 5641 5637 5633 5628 5623 5617 5610 5603 5596 5590 5585 5580 5575 5569 5562 5554 5544 5535 5530 5525 5519 5515 5511 5508 5503 5498 5493 5486 5476 5464 5453 5441 5430 5420 5410 5400 5392 5383 5373 5363 5352 5346 5343 5336 5326 5321 5321 5321 5323 5323 5320 5315 5311 5313 5317 5317 5318 5320 5322 5324 5326 5328 5329 5330 5331 5332 5334
5684 5681 5678 5675 5672 5669 5666 5663 5660 5657 5654 5652 5649 5646 5643 5641 5638 5635 5631 5628 5623 5619 5615 5609 5602 5594 5586 5579 5573 5566 5562 5557 5550 5543 5534 5525 5518 5512 5505 5498 5493 5489 5484 5479 5475 5470 5464 5456 5446 5435 5423 5411 5398 5388 5380 5371 5362 5352 5340 5332 5328 5323 5316 5312 5309 5307 5309 5312 5310 5304 5301 5302 5305 5306 5306 5309 5311 5314 5316 5318 5319 5321 5322 5323 5326
5676 5673 5670 5667 5664 5661 5658 5656 5652 5649 5646 5643 5640 5638 5634 5631 5628 5625 5621 5618 5614 5610 5605 5600 5595 5587 5579 5570 5562 5555 5549 5544 5538 5531 5524 5514 5505 5498 5491 5483 5476 5471 5466 5460 5454 5448 5442 5438 5432 5423 5414 5402 5389 5376 5366 5358 5349 5341 5332 5324 5318 5312 5307 5303 5300 5297 5297 5300 5301 5295 5292 5293 5295 5296 5298 5300 5302 5305 5307 5309 5310 5313 5314 5315 5318